User: anonymous
Location: Black Swamp Observatory
(41.3920°N, 84.1250°W)
Time: 09:30:17
(UTC-04:00)
Language:

MaSat-1 - Orbit

View from above orbital plane
View from above orbital plane
View from above satellite
View from above satellite

Ground track
Ground track

The orbit data is extracted from the following two-line orbital elements,

1 38081U 12006E   14212.16497775  .00075198  47615-5  79694-3 0  2646
2 38081 069.4567 234.3480 0347620 291.1844 130.3702 15.15137793130129
Epoch (UTC): 31 July 2014 03:57:34
Eccentricity: 0.0347620
inclination: 69.4567°
perigee height: 281 km
apogee height: 760 km
right ascension of ascending node: 234.3480°
argument of perigee: 291.1844°
revolutions per day: 15.15137793
mean anomaly at epoch: 130.3702°
orbit number at epoch: 13012

The dashed part of the orbit path shows where the satellite is in the earth's shadow,  

DLR